CW0565 Weather Reports


time (UTC)temp
C
wind
direction
speed
KPH
gust
KPH
rain 1hr
cm
rain 24hr
cm
rain mn
cm
humidity
%
barometer
mb
20260503230010 6 140 0.0 3.2 0.00 0.03 0.00 88 1005.6
20260503224510 6 148 0.0 0.0 0.00 0.03 0.00 88 1005.8
20260503223010 7 148 0.0 0.0 0.00 0.03 0.00 88 1006.0
20260503221502 7 149 0.0 0.0 0.00 0.03 0.00 87 1006.0
20260503220010 7 148 0.0 0.0 0.00 0.03 0.03 87 1005.8
20260503214510 7 148 0.0 0.0 0.00 0.03 0.03 88 1006.2
20260503213011 7 148 0.0 1.6 0.00 0.03 0.03 87 1006.2
20260503211509 7 148 0.0 3.2 0.00 0.03 0.03 87 1006.2
20260503210010 7 150 1.6 4.8 0.00 0.03 0.03 87 1006.3
20260503203011 8 148 0.0 4.8 0.00 0.03 0.03 86 1006.4
20260503201510 8 148 0.0 3.2 0.00 0.03 0.03 85 1006.4
20260503200010 8 149 0.0 1.6 0.00 0.03 0.03 84 1006.5
20260503194510 8 148 0.0 3.2 0.00 0.03 0.03 84 1006.8
20260503193010 8 148 1.6 9.7 0.00 0.03 0.03 84 1006.9
20260503191510 8 150 0.0 8.0 0.00 0.03 0.03 83 1006.8
20260503190027 8 148 3.2 11.3 0.00 0.03 0.03 83 1006.8
20260503184510 8 153 4.8 14.5 0.00 0.03 0.03 83 1006.9
20260503183015 8 144 4.8 12.9 0.00 0.03 0.03 84 1007.0
20260503181510 9 136 11.3 20.9 0.00 0.03 0.03 83 1006.8
20260503180012 9 146 12.9 19.3 0.00 0.03 0.03 82 1006.8
20260503174509 10 134 11.3 20.9 0.00 0.03 0.03 81 1006.7
20260503173009 10 147 11.3 19.3 0.00 0.03 0.03 78 1006.7
20260503171514 10 134 8.0 17.7 0.00 0.03 0.03 76 1006.7
20260503081515 12 160 6.4 16.1 0.00 0.08 0.03 58 1008.9
20260503071513 14 26 0.0 4.8 0.00 0.08 0.03 59 1009.0
20260503054509 7 28 4.8 9.7 0.00 0.08 0.03 84 1008.6
20260503053010 7 65 8.0 14.5 0.00 0.08 0.03 86 1008.6
20260503051509 7 16 4.8 12.9 0.00 0.08 0.03 88 1008.5
20260503050012 6 11 3.2 8.0 0.00 0.08 0.03 90 1008.5
20260503044510 6 5 0.0 8.0 0.00 0.08 0.03 91 1008.4
20260503043009 6 32 6.4 14.5 0.00 0.08 0.03 92 1008.5
20260503040009 6 11 3.2 6.4 0.03 0.08 0.03 94 1008.7
20260503034510 6 11 0.0 9.7 0.03 0.08 0.03 94 1008.6
20260503033011 5 11 1.6 9.7 0.03 0.08 0.03 94 1008.6
20260503031509 5 162 0.0 0.0 0.00 0.05 0.00 94 1008.6
20260503030009 5 163 0.0 0.0 0.00 0.05 0.00 94 1008.6
20260503024512 5 162 0.0 0.0 0.00 0.05 0.00 93 1008.5
20260503023009 5 164 0.0 3.2 0.00 0.05 0.00 93 1008.5
20260503021509 5 163 0.0 0.0 0.00 0.05 0.00 93 1008.5
20260503020010 6 164 0.0 0.0 0.00 0.05 0.00 93 1008.4
20260503014510 6 164 0.0 0.0 0.00 0.05 0.00 92 1008.4
20260503013010 6 164 0.0 1.6 0.00 0.05 0.00 92 1008.4
20260503011510 6 164 0.0 0.0 0.00 0.05 0.00 92 1008.4
20260503010013 6 164 0.0 0.0 0.00 0.05 0.00 91 1008.3
20260503004521 6 164 0.0 0.0 0.00 0.05 0.00 90 1008.3
20260503003011 7 164 0.0 0.0 0.00 0.05 0.00 90 1008.3
20260503001510 7 163 0.0 0.0 0.00 0.05 0.00 90 1008.4
20260503000010 7 164 0.0 0.0 0.00 0.05 0.00 89 1008.4
20260502234510 7 164 0.0 0.0 0.00 0.05 0.00 89 1008.4
20260502233012 8 164 0.0 0.0 0.00 0.05 0.00 88 1008.6
20260502231510 8 164 0.0 0.0 0.00 0.05 0.00 87 1008.8